timestamp,wind_dir_avg,wind_spd_max_dir,wind_spd_avg,wind_spd_gust,battery_voltage,lat,long
2019-03-03 00:00:00+00:00,306.0,310.0,6.95,8.44,,47.59359,-54.27349
2019-03-03 00:10:00+00:00,309.0,309.0,6.57,7.45,,47.59359,-54.27349
2019-03-03 00:20:00+00:00,293.0,298.0,6.27,7.42,,47.59359,-54.27349
2019-03-03 00:30:00+00:00,307.0,310.0,5.77,6.94,,47.59359,-54.27349
2019-03-03 00:40:00+00:00,300.0,303.0,7.15,8.24,,47.59359,-54.27349
2019-03-03 00:50:00+00:00,287.0,285.0,6.52,8.73,,47.59359,-54.27349
2019-03-03 01:00:00+00:00,283.0,283.0,6.58,7.27,,47.59359,-54.27349
2019-03-03 01:10:00+00:00,278.0,274.0,6.78,8.12,,47.59359,-54.27349
2019-03-03 01:20:00+00:00,271.0,264.0,5.86,7.31,,47.59359,-54.27349
2019-03-03 01:30:00+00:00,286.0,306.0,3.71,5.0,,47.59359,-54.27349
2019-03-03 01:40:00+00:00,307.0,303.0,6.54,7.63,,47.59359,-54.27349
2019-03-03 01:50:00+00:00,325.0,326.0,7.59,10.97,,47.59359,-54.27349
2019-03-03 02:00:00+00:00,298.0,293.0,7.99,10.96,,47.59359,-54.27349
2019-03-03 02:10:00+00:00,315.0,318.0,7.46,8.74,,47.59359,-54.27349
2019-03-03 02:20:00+00:00,286.0,292.0,4.86,6.03,,47.59359,-54.27349
2019-03-03 02:30:00+00:00,300.0,304.0,4.63,5.55,,47.59359,-54.27349
2019-03-03 02:40:00+00:00,304.0,307.0,5.95,7.76,,47.59359,-54.27349
2019-03-03 02:50:00+00:00,319.0,326.0,6.09,7.64,,47.59359,-54.27349
2019-03-03 03:00:00+00:00,324.0,323.0,6.84,8.02,,47.59359,-54.27349
2019-03-03 03:10:00+00:00,345.0,340.0,4.77,5.39,,47.59359,-54.27349
2019-03-03 03:20:00+00:00,340.0,343.0,5.42,6.22,,47.59359,-54.27349
2019-03-03 03:30:00+00:00,334.0,319.0,4.25,4.99,,47.59359,-54.27349
2019-03-03 03:40:00+00:00,343.0,336.0,5.39,6.17,,47.59359,-54.27349
2019-03-03 03:50:00+00:00,7.0,356.0,3.49,4.1,,47.59359,-54.27349
2019-03-03 04:00:00+00:00,324.0,327.0,3.49,4.18,,47.59359,-54.27349
2019-03-03 04:10:00+00:00,306.0,306.0,4.27,4.67,,47.59359,-54.27349
2019-03-03 04:20:00+00:00,316.0,316.0,4.81,5.28,,47.59359,-54.27349
2019-03-03 04:30:00+00:00,320.0,317.0,4.92,5.67,,47.59359,-54.27349
2019-03-03 04:40:00+00:00,333.0,336.0,4.91,5.7,,47.59359,-54.27349
2019-03-03 04:50:00+00:00,320.0,319.0,4.5,5.0,,47.59359,-54.27349
2019-03-03 05:00:00+00:00,331.0,335.0,4.55,5.61,,47.59359,-54.27349
2019-03-03 05:10:00+00:00,331.0,336.0,3.81,4.53,,47.59359,-54.27349
2019-03-03 05:20:00+00:00,336.0,333.0,3.72,4.2,,47.59359,-54.27349
2019-03-03 05:30:00+00:00,331.0,331.0,2.93,3.72,,47.59359,-54.27349
2019-03-03 05:40:00+00:00,311.0,309.0,2.64,3.05,,47.59359,-54.27349
2019-03-03 05:50:00+00:00,351.0,344.0,3.06,3.71,,47.59359,-54.27349
2019-03-03 06:00:00+00:00,352.0,355.0,2.97,3.25,,47.59359,-54.27349
2019-03-03 06:10:00+00:00,16.0,4.0,2.66,3.35,,47.59359,-54.27349
2019-03-03 06:20:00+00:00,350.0,346.0,3.66,4.53,,47.59359,-54.27349
2019-03-03 06:30:00+00:00,359.0,354.0,4.04,4.78,,47.59359,-54.27349
2019-03-03 06:40:00+00:00,20.0,0.0,2.51,3.47,,47.59359,-54.27349
2019-03-03 06:50:00+00:00,23.0,35.0,3.34,3.85,,47.59359,-54.27349
2019-03-03 07:00:00+00:00,17.0,14.0,3.4,3.8,,47.59359,-54.27349
2019-03-03 07:10:00+00:00,24.0,31.0,3.21,4.08,,47.59359,-54.27349
2019-03-03 07:20:00+00:00,32.0,33.0,3.51,4.16,,47.59359,-54.27349
2019-03-03 07:30:00+00:00,17.0,20.0,3.19,3.52,,47.59359,-54.27349
2019-03-03 07:40:00+00:00,43.0,49.0,3.51,4.27,,47.59359,-54.27349
2019-03-03 07:50:00+00:00,32.0,18.0,4.11,4.56,,47.59359,-54.27349
2019-03-03 08:00:00+00:00,45.0,44.0,6.79,8.06,,47.59359,-54.27349
2019-03-03 08:10:00+00:00,45.0,42.0,4.8,5.56,,47.59359,-54.27349
2019-03-03 08:20:00+00:00,52.0,52.0,5.2,5.81,,47.59359,-54.27349
2019-03-03 08:30:00+00:00,58.0,59.0,6.6,7.34,,47.59359,-54.27349
2019-03-03 08:40:00+00:00,52.0,44.0,6.53,7.0,,47.59359,-54.27349
2019-03-03 08:50:00+00:00,54.0,57.0,7.75,9.12,,47.59359,-54.27349
2019-03-03 09:00:00+00:00,60.0,67.0,6.61,7.47,,47.59359,-54.27349
2019-03-03 09:10:00+00:00,71.0,72.0,5.69,6.58,,47.59359,-54.27349
2019-03-03 09:20:00+00:00,74.0,69.0,6.37,7.72,,47.59359,-54.27349
2019-03-03 09:30:00+00:00,75.0,77.0,6.12,6.73,,47.59359,-54.27349
2019-03-03 09:40:00+00:00,87.0,90.0,5.72,7.44,,47.59359,-54.27349
2019-03-03 09:50:00+00:00,95.0,85.0,4.1,6.17,,47.59359,-54.27349
2019-03-03 10:00:00+00:00,88.0,84.0,4.4,5.92,,47.59359,-54.27349
2019-03-03 10:10:00+00:00,82.0,76.0,5.0,5.81,,47.59359,-54.27349
2019-03-03 10:20:00+00:00,79.0,80.0,5.96,7.59,,47.59359,-54.27349
2019-03-03 10:30:00+00:00,84.0,80.0,6.6,7.84,,47.59359,-54.27349
2019-03-03 10:40:00+00:00,69.0,68.0,7.6,8.55,,47.59359,-54.27349
2019-03-03 10:50:00+00:00,75.0,72.0,7.47,8.35,,47.59359,-54.27349
2019-03-03 11:00:00+00:00,82.0,81.0,6.72,7.82,,47.59359,-54.27349
2019-03-03 11:10:00+00:00,78.0,77.0,6.93,8.22,,47.59359,-54.27349
2019-03-03 11:20:00+00:00,76.0,74.0,7.24,8.89,,47.59359,-54.27349
2019-03-03 11:30:00+00:00,81.0,82.0,7.91,9.15,,47.59359,-54.27349
2019-03-03 11:40:00+00:00,85.0,87.0,7.97,9.54,,47.59359,-54.27349
2019-03-03 11:50:00+00:00,87.0,82.0,6.99,12.26,,47.59359,-54.27349
2019-03-03 12:00:00+00:00,84.0,83.0,9.16,10.4,,47.59359,-54.27349
2019-03-03 12:10:00+00:00,85.0,83.0,6.7,8.4,,47.59359,-54.27349
2019-03-03 12:20:00+00:00,89.0,85.0,7.31,9.2,,47.59359,-54.27349
2019-03-03 12:30:00+00:00,85.0,79.0,8.08,9.95,,47.59359,-54.27349
2019-03-03 12:40:00+00:00,87.0,92.0,6.53,8.1,,47.59359,-54.27349
2019-03-03 12:50:00+00:00,88.0,88.0,6.94,9.07,,47.59359,-54.27349
2019-03-03 13:00:00+00:00,82.0,78.0,7.86,9.28,,47.59359,-54.27349
2019-03-03 13:10:00+00:00,79.0,80.0,9.25,10.35,,47.59359,-54.27349
2019-03-03 13:20:00+00:00,85.0,83.0,8.62,10.75,,47.59359,-54.27349
2019-03-03 13:30:00+00:00,78.0,80.0,9.29,10.73,,47.59359,-54.27349
2019-03-03 13:40:00+00:00,87.0,90.0,8.46,11.0,,47.59359,-54.27349
2019-03-03 13:50:00+00:00,78.0,76.0,9.96,11.45,,47.59359,-54.27349
2019-03-03 14:00:00+00:00,79.0,80.0,9.88,11.56,,47.59359,-54.27349
2019-03-03 14:10:00+00:00,81.0,83.0,8.75,11.11,,47.59359,-54.27349
2019-03-03 14:20:00+00:00,75.0,74.0,10.56,12.15,,47.59359,-54.27349
2019-03-03 14:30:00+00:00,74.0,72.0,9.78,11.47,,47.59359,-54.27349
2019-03-03 14:40:00+00:00,72.0,74.0,10.79,12.38,,47.59359,-54.27349
2019-03-03 14:50:00+00:00,75.0,76.0,11.51,12.73,,47.59359,-54.27349
2019-03-03 15:00:00+00:00,72.0,74.0,12.34,13.82,,47.59359,-54.27349
2019-03-03 15:10:00+00:00,70.0,68.0,10.83,13.62,,47.59359,-54.27349
2019-03-03 15:20:00+00:00,76.0,73.0,11.69,13.42,,47.59359,-54.27349
2019-03-03 15:30:00+00:00,72.0,70.0,11.16,12.84,,47.59359,-54.27349
2019-03-03 15:40:00+00:00,74.0,76.0,9.97,11.64,,47.59359,-54.27349
2019-03-03 15:50:00+00:00,67.0,67.0,11.19,12.81,,47.59359,-54.27349
2019-03-03 16:00:00+00:00,69.0,62.0,11.28,12.79,,47.59359,-54.27349
2019-03-03 16:10:00+00:00,65.0,67.0,11.13,13.35,,47.59359,-54.27349
2019-03-03 16:20:00+00:00,78.0,80.0,10.79,12.42,,47.59359,-54.27349
2019-03-03 16:30:00+00:00,68.0,67.0,12.4,13.66,,47.59359,-54.27349
2019-03-03 16:40:00+00:00,74.0,75.0,11.75,13.14,,47.59359,-54.27349
2019-03-03 16:50:00+00:00,74.0,79.0,10.85,15.35,,47.59359,-54.27349
2019-03-03 17:00:00+00:00,72.0,77.0,12.25,13.51,,47.59359,-54.27349
2019-03-03 17:10:00+00:00,73.0,68.0,11.26,12.85,,47.59359,-54.27349
2019-03-03 17:20:00+00:00,72.0,67.0,12.05,13.66,,47.59359,-54.27349
2019-03-03 17:30:00+00:00,59.0,58.0,12.33,14.12,,47.59359,-54.27349
2019-03-03 17:40:00+00:00,65.0,74.0,13.38,15.2,,47.59359,-54.27349
2019-03-03 17:50:00+00:00,64.0,66.0,12.03,14.99,,47.59359,-54.27349
2019-03-03 18:00:00+00:00,64.0,59.0,12.47,14.77,,47.59359,-54.27349
2019-03-03 18:10:00+00:00,62.0,59.0,10.63,12.92,,47.59359,-54.27349
2019-03-03 18:20:00+00:00,60.0,59.0,12.68,13.86,,47.59359,-54.27349
2019-03-03 18:30:00+00:00,55.0,55.0,12.91,14.13,,47.59359,-54.27349
2019-03-03 18:40:00+00:00,66.0,70.0,12.08,13.73,,47.59359,-54.27349
2019-03-03 18:50:00+00:00,53.0,52.0,12.2,13.9,,47.59359,-54.27349
2019-03-03 19:00:00+00:00,59.0,59.0,11.9,13.85,,47.59359,-54.27349
2019-03-03 19:10:00+00:00,64.0,62.0,11.89,13.18,,47.59359,-54.27349
2019-03-03 19:20:00+00:00,61.0,58.0,12.65,13.95,,47.59359,-54.27349
2019-03-03 19:30:00+00:00,62.0,57.0,11.9,13.16,,47.59359,-54.27349
2019-03-03 19:40:00+00:00,63.0,61.0,11.16,12.75,,47.59359,-54.27349
2019-03-03 19:50:00+00:00,63.0,70.0,11.44,12.79,,47.59359,-54.27349
2019-03-03 20:00:00+00:00,61.0,54.0,10.62,12.09,,47.59359,-54.27349
2019-03-03 20:10:00+00:00,61.0,60.0,10.64,11.59,,47.59359,-54.27349
2019-03-03 20:20:00+00:00,65.0,68.0,8.96,10.03,,47.59359,-54.27349
2019-03-03 20:30:00+00:00,63.0,71.0,9.47,10.62,,47.59359,-54.27349
2019-03-03 20:40:00+00:00,54.0,58.0,9.37,11.12,,47.59359,-54.27349
2019-03-03 20:50:00+00:00,42.0,41.0,10.21,11.48,,47.59359,-54.27349
2019-03-03 21:00:00+00:00,45.0,51.0,11.32,12.87,,47.59359,-54.27349
2019-03-03 21:10:00+00:00,39.0,46.0,10.31,11.62,,47.59359,-54.27349
2019-03-03 21:20:00+00:00,37.0,36.0,9.79,11.02,,47.59359,-54.27349
2019-03-03 21:30:00+00:00,44.0,43.0,10.1,12.1,,47.59359,-54.27349
2019-03-03 21:40:00+00:00,32.0,26.0,11.29,15.76,,47.59359,-54.27349
2019-03-03 21:50:00+00:00,46.0,46.0,11.12,13.11,,47.59359,-54.27349
2019-03-03 22:00:00+00:00,38.0,37.0,11.21,12.63,,47.59359,-54.27349
2019-03-03 22:10:00+00:00,38.0,36.0,11.66,13.59,,47.59359,-54.27349
2019-03-03 22:20:00+00:00,44.0,44.0,8.98,10.39,,47.59359,-54.27349
2019-03-03 22:30:00+00:00,37.0,34.0,10.78,11.86,,47.59359,-54.27349
2019-03-03 22:40:00+00:00,34.0,33.0,10.02,10.93,,47.59359,-54.27349
2019-03-03 22:50:00+00:00,38.0,39.0,10.41,12.22,,47.59359,-54.27349
2019-03-03 23:00:00+00:00,38.0,41.0,8.38,9.21,,47.59359,-54.27349
2019-03-03 23:10:00+00:00,38.0,39.0,7.55,8.6,,47.59359,-54.27349
2019-03-03 23:20:00+00:00,34.0,30.0,8.96,9.94,,47.59359,-54.27349
2019-03-03 23:30:00+00:00,34.0,35.0,7.8,9.15,,47.59359,-54.27349
2019-03-03 23:40:00+00:00,32.0,34.0,7.83,8.81,,47.59359,-54.27349
2019-03-03 23:50:00+00:00,28.0,31.0,7.07,8.07,,47.59359,-54.27349
